{"data":{"norad_id":59468,"intl_designator":"2024-068P","name":"STARLINK-31267","alt_names":[],"object_type":"PAYLOAD","status":"ACTIVE","operator":null,"country":"US","launch_date":"2024-04-10","launch_site_code":"AFETR","launch_vehicle":null,"mission":null,"orbit_class":"UNKNOWN","rcs_meters":null,"size_class":null,"mass_kg":null,"dimensions":null,"purposes":["comms"],"wikipedia_slug":null,"has_3d_model":false,"image_url":null,"decayed_at":null,"tle_current":{"epoch":"2026-09-21T08:10:31.541376Z","epoch_age_seconds":92571,"freshness":"FRESH","line1":"1 59468U 24068P   26264.34064284  .00000818  00000+0  39253-4 0  9995","line2":"2 59468  43.0057   5.3674 0001540 274.1442  85.9234 15.27576730138491","mean_motion":15.2757673,"eccentricity":0.000154,"inclination_deg":43.0057,"raan_deg":5.3674,"arg_perigee_deg":274.1442,"mean_anomaly_deg":85.9234,"bstar":3.9253e-5,"rev_number":13849,"period_min":94.266950505327,"perigee_km":482.0022634468,"apogee_km":484.11551178019,"semimajor_km":6861.1958876135,"source":"CELESTRAK","updated_at":"2026-09-22T09:00:48.949328Z"}}}